This is the latest recevied weather packets stored in our database for station/object WA6OOO. If no packets are shown the sender has not sent any weather packets the latest 10 day(s).
| Time | Temp. | Humidity | Pressure | Rain* | Wind** | Luminosity | Snow |
|---|---|---|---|---|---|---|---|
| 1777769842 | 17.78° C | 78% | 1013.6 hPa | 0 mm | - | 158 W/m² | - |
| 1777769540 | 17.22° C | 79% | 1013.8 hPa | 0 mm | - | 170 W/m² | - |
| 1777769235 | 17.22° C | 80% | 1013.7 hPa | 0 mm | - | 186 W/m² | - |
| 1777768934 | 17.22° C | 80% | 1013.7 hPa | 0 mm | - | 202 W/m² | - |
| 1777768631 | 17.22° C | 80% | 1013.9 hPa | 0 mm | - | 221 W/m² | - |
| 1777768328 | 17.22° C | 79% | 1014 hPa | 0 mm | - | 240 W/m² | - |
| 1777768024 | 17.22° C | 80% | 1013.9 hPa | 0 mm | - | 256 W/m² | - |
| 1777767721 | 17.22° C | 82% | 1014 hPa | 0 mm | - | 272 W/m² | - |
| 1777767417 | 17.22° C | 80% | 1013.9 hPa | 0 mm | - | 307 W/m² | - |
| 1777767114 | 17.78° C | 78% | 1014 hPa | 0 mm | - | 351 W/m² | - |
| 1777766812 | 17.78° C | 78% | 1013.9 hPa | 0 mm | - | 160 W/m² | - |
| 1777766509 | 18.33° C | 76% | 1014.1 hPa | 0 mm | - | 413 W/m² | - |
| 1777766205 | 18.33° C | 76% | 1013.9 hPa | 0 mm | - | 413 W/m² | - |
| 1777765904 | 18.33° C | 76% | 1014.2 hPa | 0 mm | - | 413 W/m² | - |
| 1777765599 | 18.33° C | 76% | 1014.2 hPa | 0 mm | - | 413 W/m² | - |
| 1777765297 | 18.33° C | 76% | 1014.2 hPa | 0 mm | - | 413 W/m² | - |
| 1777764993 | 18.33° C | 76% | 1014.1 hPa | 0 mm | - | 413 W/m² | - |
| 1777764689 | 18.33° C | 76% | 1014.2 hPa | 0 mm | - | 413 W/m² | - |
| 1777764385 | 18.33° C | 76% | 1014.2 hPa | 0 mm | - | 608 W/m² | - |
| 1777764083 | 18.33° C | 76% | 1014.2 hPa | 0 mm | - | 608 W/m² | - |
| 1777763780 | 18.33° C | 76% | 1014.5 hPa | 0 mm | - | 608 W/m² | - |
| 1777763478 | 18.33° C | 76% | 1014.2 hPa | 0 mm | - | 608 W/m² | - |
| 1777763176 | 18.33° C | 76% | 1014.6 hPa | 0 mm | - | 608 W/m² | - |
| 1777762874 | 18.33° C | 76% | 1014.8 hPa | 0 mm | - | 608 W/m² | - |
| 1777762569 | 18.33° C | 76% | 1014.8 hPa | 0 mm | - | 608 W/m² | - |
* Rain latest hour (hover to see other rain measurements)
** Current wind speed in m/s (hover to see current wind gust speed)